• In Lithuania
  • List of Countries
  • For 7 days
  • Water Temperature
  • Satellite Maps
  • Weather Map
  • Weather Widgets
  • user-avatar
    Login

    Hourly Weather Skirche

    Today, 21 January, Sunday

    Time Temperature Precipitation Wind Pressure Humidity
    00:00 -3°C° 0.3 mm 2 mps 736 mmHg 96%
    01:00 -3°C° 0.3 mm 2 mps 736 mmHg 96%
    02:00 -1°C° 0.3 mm 1 mps 736 mmHg 96%
    03:00 -2°C° 0 mm 1 mps 736 mmHg 96%
    04:00 -2°C° 0 mm 1 mps 735 mmHg 95%
    05:00 -3°C° 0 mm 1 mps 735 mmHg 95%
    06:00 -3°C° 0 mm 1 mps 736 mmHg 95%
    07:00 -3°C° 0 mm 1 mps 736 mmHg 94%
    08:00 -3°C° 0 mm 1 mps 736 mmHg 94%
    09:00 -3°C° 0 mm 1 mps 736 mmHg 93%
    10:00 -2°C° 0 mm 1 mps 737 mmHg 91%
    11:00 -1°C° 0 mm 1 mps 737 mmHg 90%
    12:00 0°C° 0 mm 1 mps 737 mmHg 89%
    13:00 0°C° 0 mm 1 mps 737 mmHg 89%
    14:00 0°C° 0 mm 1 mps 737 mmHg 88%
    15:00 -2°C° 0 mm 2 mps 737 mmHg 90%
    16:00 -3°C° 0 mm 2 mps 738 mmHg 91%
    17:00 -3°C° 0 mm 2 mps 738 mmHg 92%
    18:00 -4°C° 0.1 mm 3 mps 738 mmHg 92%
    19:00 -5°C° 0.1 mm 3 mps 738 mmHg 93%
    20:00 -5°C° 0.1 mm 3 mps 739 mmHg 93%
    21:00 -5°C° 0.1 mm 3 mps 739 mmHg 93%
    22:00 -5°C° 0.1 mm 3 mps 739 mmHg 94%
    23:00 -5°C° 0.1 mm 3 mps 740 mmHg 94%

    Tomorrow, 22 January, Monday

    Time Temperature Precipitation Wind Pressure Humidity
    00:00 -5°C° 0.2 mm 3 mps 740 mmHg 95%
    01:00 -5°C° 0.2 mm 4 mps 740 mmHg 95%
    02:00 -5°C° 0.2 mm 4 mps 741 mmHg 95%
    03:00 -5°C° 0.1 mm 4 mps 741 mmHg 95%
    04:00 -7°C° 0.1 mm 4 mps 741 mmHg 95%
    05:00 -7°C° 0.1 mm 4 mps 741 mmHg 95%
    06:00 -7°C° 0.2 mm 4 mps 741 mmHg 95%
    07:00 -7°C° 0.2 mm 4 mps 741 mmHg 94%
    08:00 -7°C° 0.2 mm 4 mps 741 mmHg 94%
    09:00 -7°C° 0.2 mm 4 mps 742 mmHg 94%
    10:00 -7°C° 0.2 mm 4 mps 742 mmHg 93%
    11:00 -7°C° 0.2 mm 4 mps 742 mmHg 93%
    12:00 -7°C° 0.1 mm 4 mps 743 mmHg 92%
    13:00 -5°C° 0.1 mm 4 mps 743 mmHg 92%
    14:00 -5°C° 0.1 mm 4 mps 743 mmHg 91%
    15:00 -5°C° 0 mm 3 mps 743 mmHg 91%
    16:00 -5°C° 0 mm 3 mps 743 mmHg 92%
    17:00 -6°C° 0 mm 3 mps 744 mmHg 92%
    18:00 -6°C° 0 mm 3 mps 744 mmHg 92%
    19:00 -6°C° 0 mm 3 mps 744 mmHg 93%
    20:00 -6°C° 0 mm 3 mps 745 mmHg 93%
    21:00 -6°C° 0 mm 3 mps 745 mmHg 94%
    22:00 -5°C° 0 mm 2 mps 746 mmHg 94%
    23:00 -6°C° 0 mm 2 mps 746 mmHg 95%

    Day after tomorrow, 23 January, Tuesday

    Time Temperature Precipitation Wind Pressure Humidity
    00:00 -6°C° 0 mm 2 mps 746 mmHg 95%
    01:00 -6°C° 0 mm 2 mps 747 mmHg 95%
    02:00 -6°C° 0 mm 2 mps 747 mmHg 95%
    03:00 -7°C° 0 mm 2 mps 747 mmHg 95%
    04:00 -7°C° 0 mm 2 mps 747 mmHg 95%
    05:00 -8°C° 0 mm 2 mps 747 mmHg 95%
    06:00 -8°C° 0 mm 2 mps 748 mmHg 95%
    07:00 -9°C° 0 mm 2 mps 749 mmHg 95%
    08:00 -9°C° 0 mm 2 mps 749 mmHg 95%
    09:00 -9°C° 0 mm 2 mps 750 mmHg 93%
    10:00 -8°C° 0 mm 2 mps 750 mmHg 91%
    11:00 -8°C° 0 mm 2 mps 751 mmHg 89%
    12:00 -7°C° 0 mm 2 mps 751 mmHg 87%
    13:00 -4°C° 0 mm 1 mps 751 mmHg 84%
    14:00 -4°C° 0 mm 1 mps 751 mmHg 82%
    15:00 -6°C° 0 mm 1 mps 752 mmHg 84%
    16:00 -7°C° 0 mm 1 mps 752 mmHg 85%
    17:00 -9°C° 0 mm 2 mps 752 mmHg 87%
    18:00 -9°C° 0 mm 2 mps 753 mmHg 86%
    19:00 -10°C° 0 mm 2 mps 753 mmHg 86%
    20:00 -10°C° 0 mm 2 mps 753 mmHg 85%
    21:00 -10°C° 0 mm 2 mps 753 mmHg 84%
    22:00 -12°C° 0 mm 2 mps 754 mmHg 84%
    23:00 -12°C° 0 mm 2 mps 754 mmHg 83%

    24 January, Wednesday

    Time Temperature Precipitation Wind Pressure Humidity
    00:00 -12°C° 0 mm 2 mps 754 mmHg 82%
    01:00 -12°C° 0 mm 2 mps 754 mmHg 82%
    02:00 -12°C° 0 mm 2 mps 754 mmHg 81%
    03:00 -12°C° 0 mm 2 mps 754 mmHg 80%
    04:00 -13°C° 0 mm 3 mps 754 mmHg 80%
    05:00 -13°C° 0 mm 3 mps 754 mmHg 79%
    06:00 -13°C° 0 mm 3 mps 754 mmHg 79%
    07:00 -13°C° 0 mm 3 mps 754 mmHg 78%
    08:00 -13°C° 0 mm 3 mps 754 mmHg 78%
    09:00 -12°C° 0 mm 3 mps 754 mmHg 77%
    10:00 -10°C° 0 mm 3 mps 755 mmHg 75%
    11:00 -9°C° 0 mm 4 mps 755 mmHg 74%
    12:00 -7°C° 0 mm 3 mps 755 mmHg 75%
    13:00 -7°C° 0 mm 3 mps 754 mmHg 76%
    14:00 -6°C° 0 mm 3 mps 754 mmHg 77%
    15:00 -7°C° 0 mm 3 mps 754 mmHg 78%
    16:00 -8°C° 0 mm 3 mps 754 mmHg 79%
    17:00 -8°C° 0 mm 3 mps 754 mmHg 80%
    18:00 -9°C° 0 mm 3 mps 754 mmHg 78%
    19:00 -9°C° 0 mm 3 mps 754 mmHg 77%
    20:00 -10°C° 0 mm 3 mps 754 mmHg 75%
    21:00 -10°C° 0 mm 3 mps 753 mmHg 75%
    22:00 -10°C° 0 mm 3 mps 753 mmHg 75%
    23:00 -10°C° 0 mm 3 mps 753 mmHg 75%

    25 January, Thursday

    Time Temperature Precipitation Wind Pressure Humidity
    00:00 -10°C° 0 mm 3 mps 753 mmHg 75%
    01:00 -10°C° 0 mm 3 mps 753 mmHg 75%
    02:00 -10°C° 0 mm 3 mps 752 mmHg 76%
    03:00 -10°C° 0 mm 3 mps 752 mmHg 76%
    04:00 -10°C° 0 mm 3 mps 752 mmHg 75%
    05:00 -12°C° 0 mm 3 mps 752 mmHg 75%
    06:00 -12°C° 0 mm 3 mps 752 mmHg 75%
    07:00 -12°C° 0 mm 3 mps 751 mmHg 74%
    08:00 -12°C° 0 mm 3 mps 751 mmHg 74%
    09:00 -11°C° 0 mm 4 mps 751 mmHg 72%
    10:00 -9°C° 0 mm 4 mps 751 mmHg 70%
    11:00 -8°C° 0 mm 4 mps 751 mmHg 69%
    12:00 -7°C° 0 mm 4 mps 751 mmHg 70%
    13:00 -7°C° 0 mm 4 mps 751 mmHg 71%
    14:00 -5°C° 0 mm 4 mps 750 mmHg 72%
    15:00 -7°C° 0 mm 4 mps 750 mmHg 74%
    16:00 -8°C° 0 mm 4 mps 750 mmHg 77%
    17:00 -9°C° 0 mm 4 mps 750 mmHg 79%
    18:00 -10°C° 0 mm 4 mps 750 mmHg 79%
    19:00 -10°C° 0 mm 4 mps 750 mmHg 79%
    20:00 -11°C° 0 mm 4 mps 750 mmHg 79%
    21:00 -11°C° 0 mm 4 mps 750 mmHg 81%
    22:00 -11°C° 0 mm 4 mps 750 mmHg 83%
    23:00 -12°C° 0 mm 5 mps 750 mmHg 85%

    26 January, Friday

    Time Temperature Precipitation Wind Pressure Humidity
    00:00 -12°C° 0 mm 5 mps 750 mmHg 87%
    01:00 -12°C° 0 mm 5 mps 750 mmHg 88%
    02:00 -12°C° 0 mm 5 mps 749 mmHg 90%
    03:00 -12°C° 0 mm 5 mps 749 mmHg 90%
    04:00 -12°C° 0 mm 5 mps 749 mmHg 91%
    05:00 -13°C° 0 mm 5 mps 749 mmHg 91%
    06:00 -12°C° 0 mm 4 mps 749 mmHg 91%
    07:00 -12°C° 0 mm 4 mps 749 mmHg 91%
    08:00 -12°C° 0 mm 4 mps 749 mmHg 91%
    09:00 -12°C° 0 mm 5 mps 749 mmHg 89%
    10:00 -11°C° 0 mm 5 mps 749 mmHg 88%
    11:00 -10°C° 0 mm 5 mps 750 mmHg 86%
    12:00 -8°C° 0 mm 5 mps 749 mmHg 85%
    13:00 -7°C° 0 mm 5 mps 749 mmHg 84%
    14:00 -6°C° 0 mm 5 mps 749 mmHg 83%
    15:00 -7°C° 0 mm 5 mps 749 mmHg 84%
    16:00 -8°C° 0 mm 4 mps 749 mmHg 85%
    17:00 -8°C° 0 mm 4 mps 749 mmHg 86%
    18:00 -9°C° 0 mm 4 mps 749 mmHg 87%
    19:00 -9°C° 0 mm 4 mps 749 mmHg 87%
    20:00 -9°C° 0 mm 4 mps 749 mmHg 87%
    21:00 -9°C° 0 mm 4 mps 749 mmHg 88%
    22:00 -9°C° 0 mm 4 mps 749 mmHg 88%
    23:00 -10°C° 0 mm 4 mps 749 mmHg 89%
    Show more